Location: Hardenberg
(52.5670°N, 6.6170°E)
Time: 02:21:03
(UTC+02:00)

ISS - Visible Passes

Search period start: 19 May 2026 00:00
Search period end: 29 May 2026 00:00
Orbit: 414 x 424 km, 51.6° (Epoch: 18 May)

Date Brightness Start Highest point End Pass type
(mag) Time Alt. Az. Time Alt. Az. Time Alt. Az.
19 May -2.1 00:13:36 10° W 00:15:53 20° SW 00:15:53 20° SW visible
19 May -2.6 23:25:44 10° W 23:28:39 28° SSW 23:29:49 22° S visible
20 May -3.0 22:37:57 10° W 22:41:05 37° SSW 22:43:46 13° SE visible
21 May -1.2 00:16:40 10° SW 00:16:42 10° SW 00:16:42 10° SW visible
21 May -1.7 23:27:42 10° WSW 23:29:42 15° SW 23:30:41 13° SSW visible
22 May -2.0 22:39:36 10° W 22:42:11 21° SSW 22:44:42 10° SSE visible
24 May -1.2 22:42:33 10° SW 22:43:07 10° SW 22:43:41 10° SSW visible
